User: anonymous   Login
Location: Aalen
(48.8330°N, 10.1000°E)
Time: 20:40:40
(UTC+02:00)
Language:

A-11 Canister half - Orbit

View from above orbital plane
View from above orbital plane
View from above satellite
View from above satellite

Ground track
Ground track

The orbit data is extracted from the following two-line orbital elements,

1    53U 60009E   21208.40918006 -.00000031  00000-0  52484-3 0  9995
2    53  47.2773  90.1608 0097007 197.8859 161.8504 12.17256146717896
Epoch (UTC): 27 July 2021 09:49:13
Eccentricity: 0.0097007
inclination: 47.2773°
perigee height: 1527 km
apogee height: 1682 km
right ascension of ascending node: 90.1608°
argument of perigee: 197.8859°
revolutions per day: 12.17256146
mean anomaly at epoch: 161.8504°
orbit number at epoch: 71789

The dashed part of the orbit path shows where the satellite is in the earth's shadow,  

DLR